De Soto, IL

12:21 PM CST on February 20, 2017 (GMT -0600)
Southern Illinois

Weather History for KMDH - December, 2012

Change the Weather History Date:

Saturday, December 29, 2012

  Actual Average Record
Temperature  
Mean Temperature 22 °F -  
Max Temperature 32 °F 40 °F 64 °F (1928)
Min Temperature 10 °F 23 °F 0 °F (1917)
Degree Days  
Heating Degree Days 43    
Moisture  
Dew Point 24 °F    
Average Humidity 86    
Maximum Humidity 93    
Minimum Humidity 72    
Precipitation  
Precipitation 0.03 in - - ()
Sea Level Pressure  
Sea Level Pressure 30.12 in    
Wind  
Wind Speed 9 mph (WNW)    
Max Wind Speed 15 mph    
Max Gust Speed 21 mph    
Visibility 4 miles    
Events Fog , Snow    
Averages and records for this station are not official NWS values.
T = Trace of Precipitation, MM = Missing Value Source: NWS Daily Summary

Daily Weather History Graph

Daily Weather History Graph

Search for Another Location

Airport or City:

Trip Planner

Search our weather history database for the weather conditions in past years. The results will help you decide how hot, cold, wet, or windy it might be!

Date:

Astronomy

Dec. 29, 2012 Rise Set
Actual Time 7:11 AM CST 4:46 PM CST
Civil Twilight 6:42 AM CST 5:16 PM CST
Nautical Twilight 6:09 AM CST 5:49 PM CST
Astronomical Twilight 5:37 AM CST 6:21 PM CST
Moon 6:17 PM CST (12/29) 7:47 AM CST (12/29)
Length of Visible Light 10h 33m
Length of Day
9h 34m
Full, 98% of the Moon is Illuminated
Dec 29
Full
Jan 4
Last Quarter
Jan 11
New
Jan 18
First Quarter
Jan 26
Full

Hourly Weather History & Observations

Time (CST) Temp. Windchill Dew Point Humidity Pressure Visibility Wind Dir Wind Speed Gust Speed Precip Events Conditions
12:05 AM 32.0 °F 24.2 °F 30.2 °F 93% 29.88 in 2.0 mi NW 9.2 mph - 0.00 in Snow Light Snow
12:25 AM 32.0 °F 24.8 °F 30.2 °F 93% 29.88 in 1.5 mi NW 8.1 mph - 0.01 in Snow Light Snow
12:52 AM 32.0 °F 24.8 °F 30.0 °F 92% 29.89 in 1.8 mi NW 8.1 mph - 0.01 in Snow Light Snow
1:20 AM 32.0 °F 24.8 °F 30.2 °F 93% 29.89 in 2.5 mi NW 8.1 mph - 0.01 in Snow Light Snow
1:52 AM 32.0 °F 23.0 °F 30.0 °F 92% 29.92 in 3.0 mi NW 11.5 mph 16.1 mph 0.01 in Snow Light Snow
2:35 AM 32.0 °F 24.2 °F 30.2 °F 93% 29.93 in 6.0 mi NW 9.2 mph - 0.00 in   Overcast
2:50 AM 32.0 °F 24.8 °F 28.4 °F 87% 29.92 in 5.0 mi NW 8.1 mph - 0.00 in   Overcast
2:52 AM 32.0 °F 23.6 °F 28.9 °F 88% 29.94 in 5.0 mi NW 10.4 mph - 0.00 in   Overcast
3:19 AM 32.0 °F 23.6 °F 28.4 °F 87% 29.93 in 5.0 mi WNW 10.4 mph - N/A   Overcast
3:35 AM 32.0 °F 24.2 °F 28.4 °F 87% 29.93 in 6.0 mi NW 9.2 mph - N/A   Overcast
4:09 AM 32.0 °F 24.8 °F 30.2 °F 93% 29.95 in 5.0 mi WNW 8.1 mph - N/A   Overcast
4:52 AM 32.0 °F 23.0 °F 28.9 °F 88% 29.97 in 6.0 mi WNW 11.5 mph 18.4 mph N/A   Overcast
5:31 AM 32.0 °F 26.4 °F 28.4 °F 87% 29.97 in 5.0 mi NW 5.8 mph - N/A   Overcast
5:52 AM 32.0 °F 25.6 °F 28.9 °F 88% 29.99 in 5.0 mi WNW 6.9 mph - N/A   Overcast
6:00 AM 32.0 °F 24.8 °F 28.4 °F 87% 29.99 in 5.0 mi WNW 8.1 mph - N/A   Overcast
6:08 AM 32.0 °F 25.6 °F 28.4 °F 87% 29.99 in 6.0 mi NW 6.9 mph - N/A   Overcast
6:43 AM 32.0 °F 26.4 °F 28.4 °F 87% 30.01 in 6.0 mi WNW 5.8 mph - N/A   Overcast
6:52 AM 32.0 °F 24.8 °F 28.9 °F 88% 30.03 in 6.0 mi WNW 8.1 mph - N/A   Overcast
7:04 AM 32.0 °F 24.8 °F 28.4 °F 87% 30.02 in 6.0 mi WNW 8.1 mph - N/A   Overcast
7:21 AM 32.0 °F 22.5 °F 28.4 °F 87% 30.03 in 6.0 mi WNW 12.7 mph - N/A   Overcast
7:52 AM 32.0 °F 24.8 °F 28.0 °F 85% 30.06 in 5.0 mi WNW 8.1 mph - N/A   Overcast
8:36 AM 32.0 °F 24.8 °F 28.4 °F 87% 30.07 in 2.5 mi WNW 8.1 mph - 0.00 in Snow Light Snow
8:49 AM 30.2 °F 22.6 °F 28.4 °F 93% 30.08 in 1.2 mi WNW 8.1 mph 17.3 mph 0.00 in Snow Light Snow
8:52 AM 30.9 °F 22.2 °F 28.0 °F 89% 30.09 in 1.2 mi WNW 10.4 mph - 0.00 in Snow Light Snow
9:22 AM 30.2 °F 20.8 °F 28.4 °F 93% 30.10 in 1.5 mi WNW 11.5 mph - 0.00 in Snow Light Snow
9:52 AM 30.9 °F 24.3 °F 28.0 °F 89% 30.13 in 1.5 mi West 6.9 mph - 0.00 in Snow Light Snow
9:57 AM 30.2 °F 21.3 °F 26.6 °F 86% 30.12 in 1.5 mi West 10.4 mph - 0.00 in Snow Light Snow
10:04 AM 30.2 °F 20.8 °F 26.6 °F 86% 30.12 in 1.8 mi West 11.5 mph 18.4 mph 0.00 in Snow Light Snow
10:29 AM 30.2 °F 20.8 °F 26.6 °F 86% 30.12 in 2.0 mi WNW 11.5 mph 18.4 mph 0.00 in Snow Light Snow
10:52 AM 30.9 °F 21.7 °F 27.0 °F 85% 30.14 in 3.0 mi WNW 11.5 mph - 0.00 in Snow Light Snow
11:31 AM 30.2 °F 19.3 °F 26.6 °F 86% 30.13 in 2.5 mi NW 15.0 mph 20.7 mph 0.00 in Snow Light Snow
11:45 AM 30.2 °F 21.3 °F 26.6 °F 86% 30.14 in 3.0 mi WNW 10.4 mph - 0.00 in Snow Light Snow
11:52 AM 30.9 °F 21.7 °F 26.1 °F 82% 30.15 in 3.0 mi WNW 11.5 mph 19.6 mph 0.00 in   Haze
12:01 PM 30.2 °F 21.9 °F 26.6 °F 86% 30.14 in 4.0 mi WNW 9.2 mph 17.3 mph 0.01 in   Haze
12:52 PM 30.0 °F 19.5 °F 24.1 °F 79% 30.16 in 6.0 mi WNW 13.8 mph 20.7 mph 0.01 in   Haze
1:52 PM 30.0 °F 21.7 °F 21.9 °F 72% 30.18 in 9.0 mi WNW 9.2 mph 17.3 mph N/A   Overcast
2:31 PM 28.4 °F 20.4 °F 23.0 °F 80% 30.19 in 2.5 mi West 8.1 mph 19.6 mph 0.00 in Snow Light Snow
2:40 PM 28.4 °F 19.7 °F 24.8 °F 86% 30.19 in 6.0 mi WNW 9.2 mph - 0.00 in   Haze
2:52 PM 28.9 °F 18.2 °F 21.9 °F 75% 30.21 in 8.0 mi WNW 13.8 mph - 0.00 in   Overcast
3:52 PM 28.0 °F 20.0 °F 21.9 °F 78% 30.24 in 10.0 mi WNW 8.1 mph - N/A   Overcast
3:59 PM 28.4 °F 21.2 °F 21.2 °F 74% 30.24 in 10.0 mi West 6.9 mph - N/A   Overcast
4:30 PM 28.4 °F 21.2 °F 21.2 °F 74% 30.25 in 10.0 mi WNW 6.9 mph - N/A   Overcast
4:52 PM 27.0 °F 20.5 °F 21.0 °F 78% 30.26 in 10.0 mi WNW 5.8 mph - N/A   Overcast
5:52 PM 21.9 °F 13.4 °F 18.0 °F 85% 30.30 in 10.0 mi WSW 6.9 mph - N/A   Partly Cloudy
7:52 PM 21.0 °F 13.4 °F 18.0 °F 88% 30.35 in 9.0 mi WSW 5.8 mph - N/A   Clear
8:52 PM 18.0 °F 7.7 °F 15.1 °F 88% 30.38 in 8.0 mi WSW 8.1 mph - N/A   Clear
9:52 PM 19.0 °F 11.1 °F 16.0 °F 88% 30.39 in 8.0 mi WSW 5.8 mph - N/A   Clear
10:34 PM 15.8 °F - 12.2 °F 86% 30.37 in 1.5 mi Calm Calm - N/A   Clear
10:52 PM 17.1 °F - 14.0 °F 88% 30.39 in 0.8 mi Calm Calm - N/A   Clear
11:18 PM 15.8 °F - 12.2 °F 86% 30.37 in 0.2 mi Calm Calm - N/A Fog Light Freezing Fog
11:30 PM 12.2 °F 4.3 °F 8.6 °F 85% 30.37 in 0.2 mi South 4.6 mph - N/A Fog Light Freezing Fog
11:48 PM 12.2 °F 6.1 °F 8.6 °F 85% 30.37 in 0.8 mi South 3.5 mph - N/A   Mist
11:52 PM 10.9 °F 2.9 °F 8.1 °F 88% 30.40 in 0.2 mi SSW 4.6 mph - N/A Fog Light Freezing Fog